TimeEDT,TemperatureF,Dew PointF,Humidity,Sea Level PressureIn,VisibilityMPH,Wind Direction,Wind SpeedMPH,Gust SpeedMPH,PrecipitationIn,Events,Conditions,WindDirDegrees,DateUTC
12:02 AM,59.0,57.2,94,29.58,3.0,SE,11.5,-,0.06,Rain,Rain,140,2013-04-19 04:02:00
12:54 AM,59.0,57.9,96,29.53,6.0,SSE,6.9,-,0.16,Rain,Light Rain,150,2013-04-19 04:54:00
1:43 AM,57.2,57.2,100,29.51,4.0,West,16.1,-,0.07,Rain,Rain,280,2013-04-19 05:43:00
1:54 AM,55.9,55.0,97,29.53,2.5,West,11.5,25.3,0.14,Rain,Rain,260,2013-04-19 05:54:00
1:57 AM,55.4,55.4,100,29.53,3.0,West,12.7,-,0.02,Rain,Rain,280,2013-04-19 05:57:00
2:18 AM,53.6,53.6,100,29.50,4.0,West,9.2,-,N/A,Rain,Rain,280,2013-04-19 06:18:00
2:37 AM,53.6,51.8,94,29.50,2.5,West,10.4,-,0.14,Rain,Heavy Rain,280,2013-04-19 06:37:00
2:54 AM,50.0,48.9,96,29.48,5.0,West,18.4,26.5,0.18,Rain,Rain,280,2013-04-19 06:54:00
3:01 AM,48.2,46.4,93,29.48,5.0,West,19.6,26.5,0.03,Rain,Rain,280,2013-04-19 07:01:00
3:17 AM,46.4,44.6,93,29.49,5.0,West,19.6,31.1,0.05,Rain,Light Rain,270,2013-04-19 07:17:00
3:54 AM,46.9,45.0,93,29.50,3.0,West,19.6,26.5,0.15,Rain,Rain,260,2013-04-19 07:54:00
4:16 AM,46.4,44.6,93,29.49,5.0,West,16.1,-,0.06,Rain,Light Rain,270,2013-04-19 08:16:00
4:27 AM,44.6,42.8,93,29.49,4.0,West,21.9,27.6,0.09,Rain,Rain,280,2013-04-19 08:27:00
4:38 AM,44.6,42.8,93,29.49,3.0,West,19.6,28.8,0.14,Rain,Heavy Rain,280,2013-04-19 08:38:00
4:54 AM,43.0,39.9,89,29.52,4.0,West,25.3,33.4,0.17,Rain,Rain,270,2013-04-19 08:54:00
5:22 AM,42.8,39.2,87,29.51,3.0,West,21.9,28.8,0.02,Rain,Light Rain,270,2013-04-19 09:22:00
5:54 AM,42.1,37.9,85,29.52,10.0,West,23.0,31.1,0.02,Rain,Light Rain,260,2013-04-19 09:54:00
6:02 AM,41.0,37.4,87,29.52,10.0,West,21.9,29.9,0.00,,Overcast,270,2013-04-19 10:02:00
6:27 AM,41.0,37.4,87,29.52,10.0,West,23.0,32.2,0.00,Rain,Light Rain,270,2013-04-19 10:27:00
6:54 AM,39.9,35.1,83,29.55,10.0,West,27.6,34.5,0.00,,Overcast,270,2013-04-19 10:54:00
7:54 AM,39.0,33.1,79,29.58,10.0,West,25.3,32.2,N/A,,Overcast,260,2013-04-19 11:54:00
8:54 AM,37.9,32.0,79,29.61,10.0,WSW,25.3,29.9,N/A,,Overcast,250,2013-04-19 12:54:00
9:54 AM,39.0,30.9,73,29.62,10.0,WSW,26.5,31.1,N/A,,Overcast,250,2013-04-19 13:54:00
10:33 AM,39.2,30.2,70,29.63,10.0,WSW,24.2,31.1,N/A,,Overcast,250,2013-04-19 14:33:00
10:52 AM,37.4,30.2,75,29.64,10.0,WSW,21.9,35.7,N/A,,Overcast,250,2013-04-19 14:52:00
10:54 AM,37.9,30.9,76,29.65,10.0,WSW,25.3,35.7,N/A,,Overcast,240,2013-04-19 14:54:00
11:31 AM,39.2,30.2,70,29.65,10.0,WSW,27.6,38.0,N/A,,Overcast,240,2013-04-19 15:31:00
11:54 AM,37.9,30.9,76,29.66,9.0,WSW,29.9,36.8,0.00,Snow,Light Snow,250,2013-04-19 15:54:00
12:18 PM,39.2,30.2,70,29.65,10.0,WSW,26.5,38.0,0.00,,Overcast,250,2013-04-19 16:18:00
12:54 PM,39.9,30.0,68,29.66,10.0,WSW,26.5,40.3,0.00,,Mostly Cloudy,240,2013-04-19 16:54:00
1:54 PM,39.9,30.0,68,29.68,10.0,WSW,28.8,38.0,N/A,,Overcast,250,2013-04-19 17:54:00
2:54 PM,39.0,30.0,70,29.72,10.0,WSW,32.2,40.3,N/A,,Overcast,240,2013-04-19 18:54:00
3:44 PM,39.2,30.2,70,29.72,10.0,WSW,34.5,43.7,N/A,,Overcast,240,2013-04-19 19:44:00
3:54 PM,39.0,30.9,73,29.73,10.0,WSW,26.5,39.1,N/A,,Overcast,240,2013-04-19 19:54:00
4:54 PM,37.9,30.9,76,29.75,10.0,WSW,24.2,35.7,0.00,Snow,Light Snow,240,2013-04-19 20:54:00
5:20 PM,37.4,30.2,75,29.74,10.0,WSW,25.3,34.5,0.00,,Overcast,240,2013-04-19 21:20:00
5:54 PM,39.0,30.9,73,29.78,10.0,WSW,23.0,32.2,0.00,Rain,Light Rain,240,2013-04-19 21:54:00
6:40 PM,37.4,30.2,75,29.78,10.0,WSW,21.9,31.1,0.00,Rain,Light Rain,240,2013-04-19 22:40:00
6:54 PM,39.0,30.9,73,29.81,10.0,WSW,21.9,32.2,0.00,Rain,Light Rain,240,2013-04-19 22:54:00
7:19 PM,39.2,30.2,70,29.80,10.0,WSW,25.3,33.4,0.00,Rain,Light Rain,250,2013-04-19 23:19:00
7:36 PM,37.4,32.0,81,29.81,10.0,WSW,17.3,25.3,0.00,Rain,Light Rain,240,2013-04-19 23:36:00
7:48 PM,62.6,26.6,26,30.17,10.0,NW,6.9,-,N/A,,Clear,320,2013-04-19 23:48:00
7:54 PM,36.0,33.1,89,29.83,4.0,WSW,19.6,-,0.02,Rain,Light Rain,250,2013-04-19 23:54:00
8:09 PM,37.4,33.8,87,29.82,9.0,WSW,18.4,-,0.00,Snow,Light Snow,240,2013-04-20 00:09:00
8:54 PM,37.0,32.0,82,29.86,10.0,WSW,19.6,27.6,0.00,Rain-Snow,Light Rain,250,2013-04-20 00:54:00
9:54 PM,36.0,30.9,82,29.88,10.0,WSW,18.4,26.5,0.00,,Overcast,250,2013-04-20 01:54:00
10:21 PM,35.6,30.2,81,29.86,10.0,WSW,20.7,29.9,N/A,,Mostly Cloudy,250,2013-04-20 02:21:00
10:46 PM,35.6,30.2,81,29.86,10.0,WSW,18.4,26.5,N/A,,Mostly Cloudy,250,2013-04-20 02:46:00
10:54 PM,36.0,30.9,82,29.89,10.0,WSW,19.6,-,N/A,,Mostly Cloudy,250,2013-04-20 02:54:00
11:54 PM,37.0,30.0,76,29.89,10.0,WSW,21.9,28.8,N/A,,Mostly Cloudy,250,2013-04-20 03:54:00